DELTA 1 DEB, 19316

Orbit data source: Space-Track

DELTA 1 DEB, 19316 is space debris in SSO originally from a launch on Thu, 29 Jul 1976 UTC launched from the Air Force Western Test Range (AFWTR). Debris objects in space refer to the collection of defunct objects orbiting the Earth. Examples of debris include non-operational satellites, rocket bodies, and fragments generated from explosions, collisions, or faulty payload assembly.

Loading next visibility...
Identifier
19316, 1976-077FK
Orbit
SSO
Country
Flag of USUS
Related business
Manufacturer
Unknown
Mission
Spacecraft
Bus & Motor
Unknown
Mass
Unknown
Launch date (UTC)
1976-07-29 (50 years ago)
Launch vehicle
Unknown
Launch site
Air Force Western Test Range (AFWTR)
Object type
Payload
Rocket body
Debris
Shape & HBR
Unknown shape, 0.1 m
Radar Cross Section
Small (<0.1 m²)

Expand to show TLE details & history
Last TLE update: 16 hours ago

TLE from 16 hours ago
0 DELTA 1 DEB
1 19316U 76077FK  26033.37492657  .00000339  00000-0  42241-2 0  9994
2 19316 102.1401 174.4301 0209224 289.7374  89.9659 12.03730997795806
Epoch: 2026-02-02T08:59Z
TLE epoch observation values (Epoch: 2026-02-02T08:59:53.655Z)
Latitude
21.5933°
Longitude
-97.97519°
Altitude
1,669.885 km
Speed
7.039 km/s
True Right ascension
11h 18m 16s
True Declination
21° 29' 21"
Sunlit
Object was in full shadow at epoch
Visualization orbit readout
Latitude
Unknown
Longitude
Unknown
Altitude
Unknown
Speed
Unknown
Apparent Right ascension
Unknown
Apparent Declination
Unknown
Sunlit
N/A
Visualization observer readout
Local Sidereal Time
02:48:21
Azimuth
Unknown
Elevation
Unknown
Doppler factor
Unknown
Orbital elements
Apogee altitude
1,830.043 km
Perigee altitude
1,493.613 km
Semi-major axis
8,039.965 km
Eccentricity
0.02092
Inclination
102.1401°
RAAN
174.4301°
Arg. of periapsis
289.7374°
True anomaly
92.36277°
Mean anomaly
89.9659°
Eccentric anomaly
91.16442°
Mean motion
3.01066 °/min
Orbital period
119.58 mins
BSTAR
0.0042241
Loading maneuver chart data...
Computing Atmospheric mass density...
Loading historical data...
Loading historical data...
Loading historical data...
Loading historical data...
Loading historical data...
Loading historical data...
Loading historical data...

Documentation

Showing up to 5 results
|